• MPC Preparation (Info)

  • MPEC 2012-V28 : 2012 VH6

    The following Minor Planet Electronic Circular may be linked-to from your own Web pages, but must not otherwise be redistributed electronically.

    A form allowing access to any MPEC is at the bottom of this page.


    Read MPEC 2012-V27 Read MPEC 2012-V29


    M.P.E.C. 2012-V28                                Issued 2012 Nov. 6, 18:13 UT
    
         The Minor Planet Electronic Circulars contain information on unusual
             minor planets and routine data on comets.  They are published
       on behalf of Commission 20 of the International Astronomical Union by the
              Minor Planet Center, Smithsonian Astrophysical Observatory,
                              Cambridge, MA 02138, U.S.A.
    
                 Prepared using the Tamkin Foundation Computer Network
    
                                  MPC@CFA.HARVARD.EDU
                URL https://www.minorplanetcenter.net/    ISSN 1523-6714
    
                                       2012 VH6
    
    Observations:
         K12V06H* C2012 11 03.39415002 50 52.567-12 06 11.05         20.7 iLEV028F51
         K12V06H  C2012 11 03.40668602 50 52.005-12 05 53.93         20.6 iLEV028F51
         K12V06H KC2012 11 04.31962 02 50 18.47 -11 44 51.4          20.2 RoEV028291
         K12V06H KC2012 11 04.32153 02 50 18.33 -11 44 48.2          20.0 RoEV028291
         K12V06H KC2012 11 04.32344 02 50 18.25 -11 44 44.9          20.2 RoEV028291
         K12V06H HC2012 11 05.35228 02 49 41.39 -11 20 53.0          20.3 RoEV028291
         K12V06H HC2012 11 05.35421 02 49 41.21 -11 20 49.3          20.2 RoEV028291
         K12V06H HC2012 11 05.35614 02 49 41.17 -11 20 47.5          19.8 RoEV028291
         K12V06H KC2012 11 06.35467 02 49 06.38 -10 57 29.8          20.4 RoEV028291
         K12V06H KC2012 11 06.35636 02 49 06.31 -10 57 27.5          20.6 RoEV028291
         K12V06H KC2012 11 06.35804 02 49 06.24 -10 57 25.1          20.4 RoEV028291
    
    Observer details:
    291 LPL/Spacewatch II.  Observer T. H. Bressi.  1.8-m f/2.7 reflector + CCD.
    F51 Pan-STARRS 1, Haleakala.  Observers N. Primak, A. Schultz, S. Watters,
        T. Goggia.  Measurer PS1 Science Consortium.  1.8-m Ritchey-Chretien
        + CCD.
    
    Orbital elements:
    2012 VH6                                                 Earth MOID = 0.1943 AU
    Epoch 2012 Sept. 30.0 TT = JDT 2456200.5                MPC
    M   7.86990              (2000.0)            P               Q
    n   0.29051228     Peri.  236.20490     +0.96504910     +0.22821807
    a   2.2578394      Node   110.31172     -0.17102239     +0.92090830
    e   0.4837534      Incl.    7.89571     -0.19857385     +0.31598168
    P   3.39           H   21.3           G   0.15           U   8
    Residuals in seconds of arc
    121103 F51  0.0   0.0     121104 291  0.4-  1.0+    121106 291  0.0   0.2+
    121103 F51  0.1+  0.1-    121105 291  0.9+  0.7-    121106 291  0.0   0.1+
    121104 291  0.3+  0.2-    121105 291  0.6-  0.3+    121106 291  0.0   0.1+
    121104 291  0.5-  0.3+    121105 291  0.1+  0.6-
    
    Ephemeris:
    2012 VH6                 a,e,i = 2.26, 0.48, 8                   q = 1.1656
    Date    TT    R. A. (2000) Decl.     Delta      r     Elong.  Phase     V
    2012 10 07    03 03 05.8 -21 02 31   0.2822  1.2243   138.2    33.0    20.4
    ...
    2012 10 22    02 58 33.0 -16 37 23   0.3270  1.2823   147.2    24.9    20.6
    ...
    2012 10 30    02 53 37.5 -13 45 54   0.3597  1.3193   151.1    21.4    20.7
    ...
    2012 11 05    02 49 54.2 -11 28 50   0.3891  1.3493   152.8    19.7    20.9
    2012 11 06    02 49 19.1 -11 05 33   0.3945  1.3544   152.9    19.5    20.9
    2012 11 07    02 48 44.8 -10 42 11   0.4000  1.3596   153.0    19.3    21.0
    ...
    2012 11 13    02 45 43.5 -08 21 04   0.4360  1.3918   152.8    19.0    21.2
    ...
    2012 11 21    02 43 08.7 -05 14 06   0.4923  1.4367   150.4    19.9    21.5
    ...
    2012 12 06    02 43 44.3 +00 14 50   0.6238  1.5255   141.9    23.5    22.3
    
    A. U. Tomatic                (C) Copyright 2012 MPC           M.P.E.C. 2012-V28
    

    Read MPEC 2012-V27 Read MPEC 2012-V29


    MPEC number:

    Enter an MPEC number in one of the following forms:

    • 1997-B01 (the full form)
    • J97B01 (the packed version of the full form)
    • B01 (the abbreviated form)